Location: Willems Mobile Home Park
(44.8364°N, 87.5639°W)
Time: 11:53:26
(UTC+00:00)

Daily predictions for brighter satellites

Satellite Brightness Start Highest point End
(mag) Time Altitude Azimuth Time Altitude Azimuth Time Altitude Azimuth
Cosmos 1743 4.1 12:03:04 10° SSE 12:06:02 34° E 12:09:01 10° NNE
Meteor 1-26 Rocket 4.2 12:02:19 10° NNW 12:07:46 67° W 12:13:22 10° S
Meteor 2-3 Rocket 4.1 12:02:27 10° SW 12:07:53 42° WNW 12:13:17 10° N
Cosmos 2219 Rocket 3.3 12:03:03 10° NNW 12:08:25 42° ENE 12:13:44 10° SE
NOSS 2-1 (C) 4.4 12:06:21 18° WNW 12:08:37 31° WSW 12:12:59 10° S
IRIDIUM 103 4.4 12:05:01 10° S 12:10:14 86° E 12:15:29 10° N
Cosmos 2322 Rocket 2.4 12:04:52 10° NNW 12:10:36 78° ENE 12:16:17 10° SSE
Cosmos 1814 Rocket 4.3 12:06:13 10° SSW 12:11:25 75° ESE 12:16:42 10° NNE
CBERS-1 3.9 12:06:28 10° N 12:11:35 75° WNW 12:16:38 10° SSW
Cosmos 2058 Rocket 3.3 12:09:32 10° NNW 12:13:51 50° W 12:18:05 10° SSW
Cosmos-2242 3.1 12:11:37 10° NNW 12:15:44 51° W 12:19:48 10° S
COSMO-SKYMED 1 3.7 12:13:06 10° SW 12:16:19 22° W 12:19:33 10° NW
ATLAS 2AS CENTAUR R/B 4.2 12:13:26 10° S 12:20:01 43° ESE 12:26:27 10° NE
Thor Agena Rocket 3.5 12:16:46 10° NNE 12:21:52 87° W 12:26:53 10° SSW
SMAP 3.1 12:17:51 10° NNE 12:22:33 89° W 12:27:12 10° SSW
COSMOS 2406 3.8 12:18:40 10° WSW 12:23:48 34° NW 12:28:58 10° N
IRIDIUM 106 4.3 12:23:24 10° SSW 12:28:34 66° W 12:33:46 10° N
Landsat 7 3.9 12:24:04 10° NNE 12:28:45 85° ESE 12:33:24 10° SSW
COSMOS 2455 4.2 12:29:56 10° WNW 12:34:07 20° WSW 12:38:17 10° SSW
COSMOS 2428 4.5 12:29:26 10° N 12:34:14 27° NE 12:39:00 10° ESE
SL-16 R/B 2.8 12:31:14 10° NW 12:36:27 39° WSW 12:41:39 10° S
Cosmos 2082 Rocket 3.6 12:34:11 10° W 12:37:51 17° NW 12:41:30 10° N
CZ-2D R/B 2.7 12:35:21 10° N 12:38:30 64° WNW 12:41:38 10° SSW
NOSS 3-1 (A) 4.2 12:32:20 10° NW 12:39:39 71° WSW 12:48:38 10° SSE
USA 234 4.0 12:37:57 10° E 12:44:07 45° NNE 12:50:17 10° NW
Cosmos 2285 Rocket 4.1 12:40:42 10° NNW 12:47:01 68° WSW 12:53:21 10° S
Cosmos 1092 Rocket 4.0 22:31:17 10° N 22:37:29 83° E 22:43:37 10° S
Cosmos 1570 Rocket 4.2 22:34:06 10° NNW 22:39:18 50° ENE 22:44:26 10° SE
CZ-4C R/B 3.4 22:43:24 10° NNW 22:49:35 37° NE 22:57:08 10° ESE
Cosmos 2228 3.0 22:46:38 10° S 22:50:52 86° E 22:55:07 10° N
Cosmos 2263 Rocket 3.8 22:53:18 10° N 22:56:14 14° NE 22:58:57 10° ENE
Cosmos 1758 Rocket 3.6 22:53:56 10° N 22:58:10 52° ENE 23:02:20 10° SSE
ARIANE 6 FM1 Upper Stage 4.3 22:54:39 10° NW 22:58:20 37° WSW 23:02:04 10° S
USA 290 3.4 22:56:07 10° N 22:58:45 22° ENE 23:01:23 10° ESE
Cosmos 2098 Rocket 3.2 22:55:30 10° SSE 22:59:08 45° E 23:03:26 10° NNE
CORIOLIS 4.1 22:56:48 10° SSE 23:02:06 72° ENE 23:07:26 10° N
Cosmos 773 Rocket 4.0 22:58:58 10° NNW 23:04:06 57° ENE 23:09:15 10° SE
CZ-2D R/B 3.2 23:02:28 10° SE 23:05:24 38° ENE 23:08:21 10° N
Cosmos 2227 Rocket 3.2 23:01:45 10° N 23:06:19 24° NE 23:10:50 10° ESE
ARIANE 5 R/B 2.5 23:03:26 10° SSE 23:08:22 59° ENE 23:13:24 10° N
Cosmos 2369 Rocket 4.4 23:05:22 10° W 23:09:13 18° NW 23:13:07 10° N
NOSS 2-2 (D) 2.9 23:06:59 10° SW 23:10:27 73° NW 23:13:08 13° NNE
Cosmos 2266 Rocket 4.2 23:05:33 10° N 23:11:30 47° ENE 23:17:19 10° SSE
AQUARIUS 4.4 23:07:33 10° SE 23:11:44 45° ENE 23:15:57 10° N
Cosmos 1607 4.2 23:05:43 10° NNW 23:11:45 49° NE 23:17:49 10° ESE
SPOT 1/Viking Rocket 4.2 23:07:48 10° SE 23:12:21 32° ENE 23:16:55 10° N
Cosmos 2208 Rocket 3.9 23:08:25 10° NNW 23:13:35 69° ENE 23:18:44 10° SSE
CENTAUR R/B 3.5 23:09:16 10° WSW 23:14:40 40° NW 23:21:24 10° NNE
SL-16 R/B 3.2 23:09:11 10° N 23:15:17 58° WNW 23:21:19 10° SW
ATLAS CENTAUR R/B 0.9 23:14:24 10° NNW 23:17:34 47° NE 23:20:36 10° SE
Cosmos 1743 2.2 23:15:57 10° N 23:19:11 60° E 23:22:23 10° SSE
GEOS 3 Rocket 4.3 23:14:06 10° NNE 23:19:20 54° NW 23:24:33 10° WSW
NOSS 2-2 (E) 2.9 23:16:55 10° SW 23:20:23 73° NW 23:22:38 17° NNE
BlueWalker 3 1.7 23:17:01 10° NW 23:20:40 75° NNE 23:24:05 11° ESE
Cosmos 1626 Rocket 3.8 23:18:03 10° NNW 23:22:23 71° W 23:26:39 10° S
Cosmos 1697 Rocket 3.3 23:18:25 10° S 23:23:25 35° ESE 23:27:11 16° NE
SAR-Lupe-3 4.2 23:26:07 31° ENE 23:26:42 36° E 23:29:04 10° S
SMAP 3.3 23:22:36 10° S 23:27:15 72° WSW 23:31:55 10° NNW
Cosmos 2151 2.8 23:23:25 10° N 23:27:33 64° E 23:31:41 10° SSE
SOZ 3.8 23:25:17 10° SW 23:28:11 58° SSE 23:28:51 35° E
Cosmos 1606 Rocket 4.0 23:25:07 10° SSE 23:29:10 39° E 23:32:52 12° NNE
Gbstr 26 Del rocket 3.8 23:26:28 10° SSW 23:30:03 30° SE 23:31:38 22° E
Cosmos 1461 3.1 23:26:29 10° SSW 23:30:10 44° ESE 23:32:06 24° ENE
USA 215 4.2 23:26:29 16° ENE 23:30:39 32° N 23:36:16 10° NW
Lacrosse 4 Rocket 3.7 23:29:24 10° W 23:32:06 17° NW 23:34:48 10° N
Meteor 1-20 Rocket 4.1 23:26:55 10° N 23:32:23 68° ENE 23:37:48 10° SSE
Landsat 7 3.8 23:28:39 10° S 23:33:18 82° WSW 23:37:59 10° NNW
IRS-1C 4.2 23:28:19 10° SSE 23:33:38 85° WSW 23:39:00 10° NNW
Cosmos 1076 Rocket 4.4 23:32:12 10° NNE 23:35:51 26° ENE 23:39:30 10° SE
Resurs 1-3 4.2 23:33:31 10° SE 23:37:17 31° ENE 23:41:05 10° N
Cosmos 1544 Rocket 4.4 23:33:51 10° SSW 23:38:07 53° WNW 23:42:28 10° N
Cosmos 1733 4.2 23:38:07 10° NW 23:39:41 21° W 23:41:13 10° SSW
Okean 1-7 Rocket 3.5 23:36:10 10° N 23:40:33 64° E 23:44:52 10° SSE
Lacrosse 5 rocket 3.0 23:38:15 10° WNW 23:41:06 20° NNW 23:42:52 15° NNE
SAR-Lupe-4 4.2 23:40:27 10° S 23:43:56 56° WSW 23:47:27 10° NNW
BREEZE-M DEB (TANK) 1.4 23:50:56 10° WSW 23:52:22 56° WNW 23:52:22 56° WNW
CZ-4 R/B 4.2 23:48:51 10° SSE 23:52:46 72° ENE 23:56:43 10° N
PSLV R/B 3.9 23:49:34 10° SE 23:53:51 36° NE 23:57:03 10° N
SKYMED 2 3.5 23:51:59 18° NNE 23:55:08 67° E 23:59:27 10° S
COSMO-SKYMED 1 2.7 23:54:32 39° ENE 23:55:15 43° E 23:59:11 10° S
